Location: Tel Aviv
(32.0670°N, 34.7670°E)
Time: 02:03:01
(UTC+02:00)

Transit 4A - Pass Details

Date: 11 December 2023
Orbit: 869 x 974 km, 66.8° (Epoch: 23 February)

Event Time Altitude Azimuth Distance (km) Brightness Sun altitude
Rises 17:21:31 0° 193° (SSW) 3,647 11.5 -9.5°
Reaches altitude 10° 17:24:06 10° 189° (S) 2,707 10.8 -10.0°
Maximum altitude 17:30:19 59° 111° (ESE) 1,111 8.1 -11.2°
Drops below altitude 10° 17:36:31 10° 34° (NE) 2,705 9.9 -12.5°
Enters shadow 17:36:49 - 33° (NNE) 2,814 9.9 -12.5°
